sat.trackr.live / text

‹ back to catalog

STARLINK-37018

NORAD 68103 · 2026-044C

PAYLOAD ACTIVE UNKNOWN

§ Identity

Operator
Country
US
Launch date
2026-03-08
Launch site
AFWTR
Launch vehicle
Mass (kg)
RCS (m²)

Purposes: comms

External: N2YO · Heavens-Above · Gunter

§ Orbital elements

Epoch: 2026-05-25T03:05:09.098592Z

Period
93.91 min
Inclination
97.2840°
Eccentricity
0.0002034
Mean motion
15.33450631 rev/d
Perigee alt
464.1 km
Apogee alt
466.9 km
Semi-major
6,843.7 km
B*
7.2151e-4
RAAN
105.6983°
Arg perigee
93.3430°
Mean anomaly
266.8045°
Rev number
1,329

§ Raw data

STARLINK-370181 68103U 26044C   26145.12857753  .00023295  00000+0  72151-3 0  99992 68103  97.2840 105.6983 0002034  93.3430 266.8045 15.33450631 13290

JSON: /api/v1/satellites/68103 · /tle

For live sub-satellite position, see the globe view (requires WebGL).

§ Visibility from observer

Set your observer location to see the next 7 days of passes ≥ 10°. The values pass through the URL so the page stays shareable.

No JS? Fill the form by hand. The geolocation button needs JavaScript.